User: anonymous   Login
Location: Mat�lon
(46.2791°N, 7.1028°E)
Time: 15:34:15
(UTC+00:00)
Language:

Cosmos 990 Rocket - Orbit

View from above orbital plane
View from above orbital plane
View from above satellite
View from above satellite

Ground track
Ground track

The orbit data is extracted from the following two-line orbital elements,

1 10677U 78019B   21138.41033667 -.00000019  00000-0  25546-5 0  9999
2 10677  74.0372 176.8238 0016557 260.0574  99.8712 14.40179572268528
Epoch (UTC): 18 May 2021 09:50:53
Eccentricity: 0.0016557
inclination: 74.0372°
perigee height: 746 km
apogee height: 770 km
right ascension of ascending node: 176.8238°
argument of perigee: 260.0574°
revolutions per day: 14.40179572
mean anomaly at epoch: 99.8712°
orbit number at epoch: 26852

The dashed part of the orbit path shows where the satellite is in the earth's shadow,  

DLR